Theta_e
312 311 306 305 304 304 305 308 308 308 309 307 306 307 308 309 311 313 313 316 319 311 313 316 315 315 317 318 318 317 320 319 319 317 318 315 316 314 314 313 313 314 315 316 318
309 307 306 305 304 304 304 305 307 308 308 306 307 308 308 309 310 311 309 309 309 312 316 315 315 315 317 317 318 320 320 318 316 316 317 315 313 314 314 314 314 313 314 316 317
307 306 306 306 305 305 305 305 305 305 306 308 308 308 309 311 311 311 309 309 310 312 315 314 313 315 316 316 316 317 319 316 315 315 315 314 314 314 314 314 314 314 315 317 317
307 306 306 306 306 305 305 306 307 308 308 309 310 309 308 313 314 311 309 309 310 312 314 314 314 316 316 316 314 315 314 315 316 314 314 313 313 313 313 314 313 313 313 317 317
305 306 306 307 307 306 306 307 307 308 308 308 307 307 308 313 312 310 310 310 312 314 315 315 314 316 316 314 315 315 314 313 313 313 313 313 314 314 313 312 312 312 314 316 316
305 306 306 307 307 307 306 307 308 308 309 308 309 309 312 314 310 311 310 312 312 314 315 315 315 315 315 315 316 314 314 314 314 313 313 313 313 311 311 312 312 313 313 314 315
305 305 306 307 307 307 307 307 307 309 309 308 308 311 313 311 310 310 311 311 312 313 313 312 314 317 315 315 314 314 316 315 312 312 313 311 312 312 310 311 312 312 312 313 315
308 306 307 306 307 307 307 307 307 309 309 309 308 312 313 309 311 310 312 313 312 312 311 311 311 314 315 312 311 313 314 317 311 312 312 312 316 310 310 311 311 311 312 314 315
309 307 306 308 307 307 307 307 308 309 308 309 311 314 314 310 311 310 310 312 312 311 310 309 313 315 314 316 316 316 318 316 315 311 311 313 316 311 311 311 311 310 313 315 314
310 308 307 308 307 307 308 308 309 309 310 309 311 315 312 311 310 309 311 310 313 313 316 316 316 318 318 320 323 318 318 316 316 313 312 314 314 312 311 311 311 311 313 314 313
311 310 308 307 308 308 308 311 315 316 311 311 311 311 310 309 309 311 310 312 313 315 317 316 320 319 315 314 313 314 315 315 315 310 312 315 313 311 311 312 312 313 314 312 310
313 311 309 307 308 308 308 313 313 313 313 309 309 309 308 308 312 311 311 315 317 317 315 319 318 313 312 312 312 313 314 316 314 311 312 313 313 311 312 311 312 313 313 310 310
313 311 309 307 308 309 312 312 307 309 317 312 309 310 309 310 311 311 311 312 316 317 317 319 314 311 312 314 314 312 313 312 312 312 312 311 316 312 311 312 312 312 310 310 310
312 313 310 307 310 309 312 308 309 310 321 316 313 311 310 310 312 308 308 312 315 316 315 315 311 312 312 314 312 316 310 311 312 313 319 312 319 314 313 313 312 312 310 310 310
311 313 311 308 307 311 309 308 310 314 346 315 313 309 310 313 310 312 307 314 315 313 315 317 314 314 315 312 311 314 309 310 311 313 314 315 316 315 312 313 313 312 312 311 309
310 314 311 308 309 307 308 309 314 323 341 316 312 312 315 313 312 312 312 311 311 314 314 313 312 312 311 310 310 310 311 312 312 314 322 315 313 313 314 312 311 312 311 310 308
310 313 310 309 312 308 310 316 323 334 313 315 314 312 315 314 315 312 314 314 317 325 322 315 312 310 308 312 310 312 315 325 325 326 320 311 312 312 310 308 308 308 311 310 307
310 313 310 308 309 307 311 320 335 318 315 310 311 313 317 313 313 313 315 316 312 313 321 321 327 311 309 311 312 311 312 325 320 321 317 310 313 312 308 308 309 307 310 309 305
311 314 312 308 308 309 317 326 327 317 311 313 312 317 317 314 313 315 314 313 310 310 318 319 320 308 308 309 309 312 315 309 312 313 314 314 312 308 308 309 309 309 307 307 306
314 316 315 309 306 310 319 319 314 309 310 310 317 314 321 318 320 318 315 309 310 308 308 310 318 309 307 308 308 310 308 314 313 319 318 315 313 312 309 309 308 307 306 305 302
315 319 314 308 307 316 324 318 310 307 308 312 315 315 316 318 317 316 313 309 308 308 309 309 311 314 310 311 312 312 312 310 310 312 316 316 314 308 308 306 306 307 305 303 300
317 318 312 308 319 314 317 311 307 308 308 310 311 314 317 315 318 317 314 312 307 308 311 308 312 316 317 307 306 307 309 310 315 317 313 313 313 306 305 305 305 304 302 300 297
317 319 312 311 321 318 310 310 309 309 310 311 312 312 310 315 319 315 312 307 307 308 312 311 315 320 320 309 306 308 308 308 310 310 313 315 314 305 305 305 304 302 300 298 296
316 319 319 313 310 317 313 313 312 307 309 309 311 309 312 315 312 316 313 308 306 307 304 306 314 317 321 319 316 315 314 312 310 312 312 312 311 310 308 305 303 300 298 297 296
315 316 313 322 317 316 316 315 315 313 309 309 310 313 316 319 317 316 314 309 307 306 306 306 312 313 313 312 311 311 312 312 313 312 312 311 310 309 308 302 299 297 297 296 294
316 315 310 313 312 315 314 316 317 313 312 311 312 314 314 320 320 320 317 313 315 307 307 305 312 307 308 309 310 311 310 310 310 310 310 310 310 306 298 297 297 297 296 295 293
307 306 315 310 315 319 321 318 317 315 312 313 313 314 314 315 313 309 311 309 310 311 308 305 307 307 313 305 304 310 309 308 308 306 306 306 304 299 300 299 298 296 295 293 290
Wind_Speed
11 9 6 5 6 6 5 6 6 4 1 3 4 2 4 8 13 9 13 11 12 13 7 6 2 1 2 3 4 3 3 3 2 2 5 3 1 1 3 5 0 3 5 5 9
12 8 6 4 4 6 4 4 4 3 3 3 3 4 3 2 3 16 14 15 12 9 4 5 1 2 3 2 3 4 2 4 5 6 4 3 2 3 3 2 3 2 4 4 7
15 8 6 4 2 3 4 3 2 1 2 2 4 3 1 2 3 7 17 14 11 5 4 4 2 2 4 4 5 5 4 6 4 5 4 2 2 3 5 2 8 9 3 5 5
16 11 4 4 3 2 3 3 2 2 2 4 3 2 2 2 1 10 16 13 10 3 2 2 2 1 2 4 2 5 4 3 3 3 1 1 3 3 4 8 8 7 6 6 5
16 13 5 4 3 3 3 4 3 3 4 4 2 1 1 4 6 13 12 12 8 4 4 2 3 1 4 5 8 9 5 4 4 2 2 3 2 4 4 8 5 4 2 5 4
17 13 7 4 2 3 3 3 4 5 6 6 9 5 3 3 7 13 10 9 11 9 8 7 5 5 7 3 2 5 6 6 2 2 1 4 2 3 8 6 2 2 2 2 3
20 12 7 4 2 1 3 3 2 2 3 4 3 5 14 5 5 11 8 8 8 7 7 7 2 1 3 6 4 6 6 5 3 4 1 4 5 5 5 7 3 3 4 3 5
23 14 9 4 1 2 3 2 1 3 4 2 3 1 4 4 3 10 8 4 7 6 6 2 4 7 4 6 4 3 3 3 4 6 1 5 5 4 8 10 6 1 4 5 7
24 17 8 7 0 2 2 1 1 1 5 3 2 4 4 3 5 10 8 4 4 3 3 2 2 3 3 3 4 3 4 4 4 4 4 5 8 4 10 7 3 3 6 7 8
24 19 9 8 0 4 6 6 5 3 5 4 3 3 3 5 6 9 7 6 2 3 2 2 1 5 8 2 1 4 4 3 4 5 7 8 4 6 7 5 2 4 6 7 7
22 23 13 7 2 7 2 3 4 2 12 5 3 2 2 9 2 8 7 5 2 1 1 5 5 6 7 7 3 1 3 6 6 2 10 1 5 3 4 5 3 5 6 7 5
24 24 16 3 3 5 4 3 3 3 6 3 2 2 2 5 2 15 13 1 3 3 1 2 5 4 3 5 3 1 4 7 5 2 7 4 7 4 3 3 2 3 6 5 5
25 21 15 2 2 1 3 3 4 2 0 2 2 3 3 6 5 10 11 2 5 7 7 3 5 2 3 4 6 0 5 8 7 13 5 9 5 9 5 4 4 4 4 5 5
25 17 16 1 3 4 3 4 2 3 3 2 1 3 2 2 2 5 8 4 3 4 4 6 3 1 1 3 6 4 4 8 10 7 3 4 3 8 8 6 4 7 6 5 4
24 16 15 9 4 3 3 1 2 2 3 3 2 1 1 2 3 6 3 1 5 4 2 3 1 1 1 4 5 4 9 6 5 5 6 4 4 7 6 6 7 6 6 6 4
23 14 14 4 6 4 5 1 1 2 6 2 1 4 2 4 2 3 3 5 1 2 8 4 2 2 4 4 3 8 6 5 3 3 3 4 4 4 6 4 4 6 6 5 5
21 12 10 5 1 4 3 2 3 3 1 2 2 2 3 4 3 5 4 8 2 2 1 4 3 2 2 3 2 8 7 3 2 3 3 3 5 8 5 3 1 3 7 6 4
19 8 4 4 2 2 2 3 4 1 1 1 1 2 1 6 3 3 2 3 8 4 2 2 2 1 4 3 1 3 4 1 5 4 10 4 6 2 4 1 0 4 4 4 5
14 4 2 7 2 2 3 3 3 1 2 3 2 3 3 1 1 1 4 3 5 9 4 4 1 3 3 1 2 2 1 2 5 3 4 5 5 5 4 4 3 4 4 6 4
6 3 3 3 1 1 4 1 2 1 2 2 3 2 2 2 2 1 1 2 2 4 3 2 5 2 3 2 3 3 1 3 4 5 6 6 11 7 7 6 6 6 6 5 3
2 3 1 0 2 3 3 3 3 3 0 1 1 2 2 1 1 1 3 2 1 2 4 2 1 3 2 4 1 2 2 3 3 3 4 7 5 4 4 1 4 5 3 2 5
3 3 2 3 3 1 3 4 3 5 2 2 1 2 0 2 2 2 2 3 2 0 2 3 3 4 5 3 2 3 4 5 3 2 5 3 9 4 4 2 2 2 2 5 6
2 2 1 4 4 4 3 3 2 5 4 5 3 1 1 2 1 2 3 3 4 3 1 2 2 5 3 3 2 3 4 5 5 4 12 8 5 4 3 4 3 6 9 7 8
2 3 3 2 1 3 6 5 5 0 4 2 3 2 4 3 0 4 5 4 5 3 2 0 3 8 8 13 8 11 14 11 9 6 11 18 23 19 14 8 7 7 5 7 9
3 1 2 3 5 5 5 10 8 6 2 5 3 7 5 4 3 3 4 5 5 4 3 2 6 9 17 15 13 15 19 18 18 19 12 24 21 20 18 9 4 4 6 9 11
3 3 3 1 1 7 6 9 10 6 9 6 4 10 9 6 6 4 7 5 5 7 6 4 3 2 5 16 16 19 22 19 18 20 21 24 24 15 4 1 5 7 8 11 10
3 2 3 3 4 6 5 8 11 9 5 1 8 6 10 8 3 3 3 3 2 5 9 5 3 2 4 1 8 13 12 11 10 8 9 11 6 3 5 6 7 8 9 9 9
Wind_Direction
28 39 47 80 110 119 134 145 162 172 48 14 13 15 354 38 57 57 44 332 319 331 334 291 248 23 59 68 17 313 241 158 95 165 100 120 245 85 4 294 345 30 357 40 125
25 42 53 65 108 123 132 158 172 220 278 317 345 331 312 18 39 44 353 348 343 339 346 354 83 329 100 53 16 343 284 56 23 46 99 111 317 12 291 198 241 209 102 139 156
24 22 58 64 81 120 130 141 174 205 289 320 326 344 6 162 234 18 350 357 0 10 341 343 349 343 73 38 10 22 55 122 84 57 18 36 302 349 321 310 35 350 47 160 158
23 23 41 64 85 115 127 129 122 88 336 331 336 327 21 181 13 352 348 0 9 35 341 355 233 179 81 67 39 114 67 48 101 52 27 4 340 288 354 7 332 333 334 149 180
20 23 37 12 117 123 136 127 106 64 32 20 359 344 187 95 27 337 357 12 15 36 37 34 86 95 106 102 84 92 105 83 87 71 358 328 293 348 26 356 0 19 124 174 175
13 21 29 44 79 129 137 130 112 75 67 52 38 73 268 75 338 345 4 21 30 44 45 46 69 70 90 81 41 118 122 113 119 80 67 318 331 264 38 355 61 127 124 136 145
15 15 28 46 70 120 142 150 124 16 358 14 22 105 64 52 360 2 12 28 28 41 63 38 37 241 136 115 101 136 122 142 79 356 104 336 175 101 11 351 65 87 107 118 108
16 10 20 12 42 156 160 175 322 356 358 3 39 344 76 9 31 13 15 38 42 49 82 28 47 88 30 115 145 193 226 224 80 356 106 306 116 114 7 338 311 147 128 127 103
14 14 8 10 88 175 175 192 234 41 11 19 4 288 82 354 11 359 13 360 327 37 61 56 57 77 161 206 176 176 359 1 142 53 329 356 324 105 17 350 342 232 150 122 112
11 11 4 4 157 140 102 112 81 314 336 322 30 176 63 357 334 343 342 348 329 282 199 44 76 108 44 293 86 336 344 351 328 28 341 303 271 10 11 3 39 135 140 137 91
9 6 8 5 156 159 15 296 222 147 42 46 2 40 18 334 7 14 348 322 277 64 69 31 81 77 56 36 46 345 302 304 335 76 330 349 305 35 7 27 90 117 124 97 143
4 7 7 19 171 227 324 339 29 101 101 54 27 73 10 345 322 19 3 336 36 70 333 131 80 51 44 16 350 323 321 353 330 159 322 290 305 134 74 69 56 140 114 153 162
1 2 6 12 53 80 52 89 118 13 258 89 48 9 358 342 38 359 0 350 32 57 49 38 70 49 301 4 343 140 355 339 306 316 233 281 205 187 146 130 123 74 140 176 173
357 356 3 360 92 92 52 122 66 0 229 84 99 61 359 338 75 0 8 343 56 79 46 65 68 336 306 10 334 281 21 318 305 316 307 335 292 187 167 163 177 163 180 189 171
352 357 359 33 122 96 155 161 40 326 304 66 69 1 31 39 333 42 344 292 55 75 253 91 92 354 306 0 337 5 326 314 306 272 307 186 258 108 165 193 189 190 180 180 178
347 355 355 8 57 116 138 114 135 219 251 118 16 344 193 42 61 340 57 66 66 109 60 87 86 5 4 322 289 317 297 267 262 253 245 114 316 258 168 149 157 176 199 188 199
343 345 6 30 67 126 109 229 209 223 116 122 53 29 80 31 56 24 66 54 35 86 84 156 135 114 352 280 220 305 285 304 257 216 296 122 285 284 123 134 248 229 203 194 196
339 333 355 15 92 154 137 228 242 16 115 74 109 95 85 352 50 31 143 103 46 346 54 321 212 3 10 43 320 353 343 353 295 294 305 138 239 120 102 84 325 212 204 170 213
333 332 282 325 66 144 239 213 305 60 57 171 173 218 133 133 310 184 48 68 34 8 9 347 181 131 56 2 300 63 238 13 284 267 281 229 219 176 168 160 151 168 184 211 230
332 270 227 324 119 113 242 186 187 117 123 220 242 287 184 82 219 346 107 56 100 16 340 43 294 74 111 207 79 323 66 237 196 304 300 267 278 277 183 198 215 221 226 229 244
266 247 210 233 103 226 241 136 148 142 100 271 160 148 91 123 1 88 78 117 95 65 16 3 292 130 197 199 1 195 209 225 291 251 281 307 289 24 81 302 289 237 227 262 280
288 236 204 148 188 243 165 144 124 160 155 152 174 90 227 165 144 117 99 63 122 58 37 60 331 282 299 95 324 275 277 269 272 230 239 263 275 98 113 92 344 352 298 294 298
258 280 260 133 226 181 141 126 190 157 177 173 151 328 239 169 199 141 138 128 170 190 142 124 149 305 192 160 151 247 198 255 288 286 251 256 268 149 163 199 223 286 301 287 289
274 242 164 198 203 196 161 173 158 172 147 155 118 142 168 180 221 164 174 164 186 215 95 216 230 237 259 291 309 267 261 246 235 246 262 245 274 276 287 278 335 328 280 287 307
226 202 354 209 196 193 183 165 153 172 209 187 156 221 199 178 185 219 173 162 192 178 167 218 239 245 258 275 280 268 271 268 256 247 249 271 279 287 305 345 339 313 295 305 312
252 207 185 163 181 172 179 199 181 161 164 185 215 181 201 219 219 221 195 196 220 172 185 193 253 353 275 261 266 274 264 262 257 259 259 267 276 301 62 359 293 304 313 315 320
221 254 278 120 185 208 203 177 188 163 196 14 195 162 212 245 310 59 72 76 134 178 186 170 213 170 262 347 310 271 261 240 223 241 246 257 292 43 288 298 313 311 310 316 322